Petersburg, AK

4:15 AM AKST on February 08, 2016 (GMT -0900)
Johnson Petersburg

Weather History for PAPG - September, 2013

Change the Weather History Date:

Monday, September 2, 2013

  Actual Average Record
Temperature  
Mean Temperature 56 °F -  
Max Temperature 62 °F 55 °F 73 °F (1993)
Min Temperature 51 °F 45 °F 41 °F (2015)
Degree Days  
Heating Degree Days 8    
Growing Degree Days 6 (Base 50)    
Moisture  
Dew Point 52 °F    
Average Humidity 84    
Maximum Humidity 94    
Minimum Humidity 72    
Precipitation  
Precipitation 0.00 in - - ()
Sea Level Pressure  
Sea Level Pressure 29.94 in    
Wind  
Wind Speed 3 mph (ENE)    
Max Wind Speed 7 mph    
Max Gust Speed -    
Visibility 7 miles    
Events Fog    
Averages and records for this station are not official NWS values.
T = Trace of Precipitation, MM = Missing Value Source: NWS Daily Summary

Daily Weather History Graph

Daily Weather History Graph

Search for Another Location

Airport or City:

Trip Planner

Search our weather history database for the weather conditions in past years. The results will help you decide how hot, cold, wet, or windy it might be!

Date:

Astronomy

Sep. 02, 2013 Rise Set
Actual Time 5:57 AM AKDT 7:43 PM AKDT
Civil Twilight 5:17 AM AKDT 8:23 PM AKDT
Nautical Twilight 4:26 AM AKDT 9:14 PM AKDT
Astronomical Twilight 3:27 AM AKDT 10:12 PM AKDT
Moon 3:01 AM AKDT (9/2) 6:14 PM AKDT (9/2)
Length of Visible Light 15h 06m
Length of Day
13h 46m
Waning Crescent, 7% of the Moon is Illuminated
Sep 2
Waning Crescent
Sep 5
New
Sep 12
First Quarter
Sep 19
Full
Sep 26
Last Quarter

Hourly Weather History & Observations

Time (AKDT) Temp. Dew Point Humidity Pressure Visibility Wind Dir Wind Speed Gust Speed Precip Events Conditions
12:16 AM 53.6 °F 50.0 °F 88% 29.89 in 10.0 mi ENE 3.5 mph - N/A   Mostly Cloudy
12:56 AM 53.6 °F 50.0 °F 88% 29.89 in 10.0 mi Calm Calm - N/A   Scattered Clouds
1:16 AM 53.6 °F 51.8 °F 94% 29.89 in 10.0 mi ESE 3.5 mph - N/A   Mostly Cloudy
1:56 AM 53.6 °F 51.8 °F 94% 29.89 in 10.0 mi Calm Calm - N/A   Overcast
2:36 AM 53.6 °F 50.0 °F 88% 29.90 in 10.0 mi Calm Calm - N/A   Overcast
3:56 AM 51.8 °F 48.2 °F 88% 29.89 in 0.2 mi Calm Calm - N/A   Overcast
5:16 AM 51.8 °F 48.2 °F 88% 29.91 in 0.2 mi East 3.5 mph - N/A   Overcast
5:36 AM 51.8 °F 48.2 °F 88% 29.91 in 0.5 mi Calm Calm - N/A   Overcast
6:16 AM 51.8 °F 50.0 °F 94% 29.92 in 3.0 mi East 3.5 mph - N/A   Overcast
6:56 AM 53.6 °F 50.0 °F 88% 29.92 in 0.5 mi ENE 3.5 mph - N/A   Overcast
7:16 AM 51.8 °F 50.0 °F 94% 29.93 in 0.5 mi NE 3.5 mph - N/A   Overcast
7:36 AM 53.6 °F 51.8 °F 94% 29.92 in 0.5 mi East 3.5 mph - N/A   Overcast
8:16 AM 51.8 °F 50.0 °F 94% 29.93 in 0.5 mi East 3.5 mph - N/A   Overcast
8:36 AM 51.8 °F 50.0 °F 94% 29.93 in 0.5 mi ENE 3.5 mph - N/A   Overcast
8:56 AM 51.8 °F 50.0 °F 94% 29.94 in 0.8 mi NE 4.6 mph - N/A   Overcast
9:16 AM 51.8 °F 50.0 °F 94% 29.94 in 0.8 mi Calm Calm - N/A   Overcast
9:36 AM 53.6 °F 50.0 °F 88% 29.94 in 0.8 mi Calm Calm - N/A   Overcast
9:56 AM 53.6 °F 51.8 °F 94% 29.94 in 2.0 mi NE 3.5 mph - N/A   Overcast
10:31 AM 53.6 °F 51.8 °F 94% 29.95 in 3.0 mi Calm Calm - N/A   Mostly Cloudy
10:50 AM 55.4 °F 53.6 °F 94% 29.95 in 10.0 mi Calm Calm - N/A Fog Patches of Fog
11:56 AM 60.8 °F 53.6 °F 77% 29.95 in 10.0 mi East 5.8 mph - N/A   Scattered Clouds
12:55 PM 62.6 °F 53.6 °F 72% 29.95 in 10.0 mi NNE 5.8 mph - N/A   Scattered Clouds
12:56 PM 62.6 °F 53.6 °F 72% 29.95 in 10.0 mi ENE 4.6 mph - N/A   Scattered Clouds
1:16 PM - - N/A% 29.95 in 10.0 mi NE 5.8 mph - N/A   Scattered Clouds
1:36 PM 60.8 °F 53.6 °F 77% 29.96 in 10.0 mi NE 5.8 mph - N/A   Scattered Clouds
1:56 PM 60.8 °F 53.6 °F 77% 29.96 in 10.0 mi NE 5.8 mph - N/A   Scattered Clouds
2:16 PM 60.8 °F 53.6 °F 77% 29.96 in 10.0 mi NE 5.8 mph - N/A   Scattered Clouds
2:56 PM 60.8 °F 53.6 °F 77% 29.95 in 10.0 mi NE 6.9 mph - N/A   Scattered Clouds
3:16 PM 60.8 °F 53.6 °F 77% 29.95 in 10.0 mi ENE 6.9 mph - N/A   Scattered Clouds
3:56 PM 60.8 °F 53.6 °F 77% 29.95 in 10.0 mi NE 6.9 mph - N/A   Scattered Clouds
4:16 PM 60.8 °F 53.6 °F 77% 29.95 in 10.0 mi ENE 6.9 mph - N/A   Scattered Clouds
4:56 PM 62.6 °F 53.6 °F 72% 29.94 in 10.0 mi ENE 4.6 mph - N/A   Scattered Clouds
5:16 PM 62.6 °F 53.6 °F 72% 29.94 in 10.0 mi NE 4.6 mph - N/A   Scattered Clouds
5:36 PM 62.6 °F 53.6 °F 72% 29.94 in 10.0 mi East 5.8 mph - N/A   Scattered Clouds
5:56 PM 60.8 °F 53.6 °F 77% 29.95 in 10.0 mi ENE 5.8 mph - N/A   Scattered Clouds
6:16 PM 57.2 °F 51.8 °F 82% 29.95 in 10.0 mi ENE 5.8 mph - N/A   Scattered Clouds
6:36 PM 57.2 °F 51.8 °F 82% 29.95 in 10.0 mi ENE 4.6 mph - N/A   Scattered Clouds
7:16 PM 59.0 °F 51.8 °F 77% 29.96 in 10.0 mi East 5.8 mph - N/A   Partly Cloudy
7:36 PM 59.0 °F 51.8 °F 77% 29.96 in 10.0 mi ESE 5.8 mph - N/A   Partly Cloudy
7:56 PM 57.2 °F 51.8 °F 82% 29.96 in 10.0 mi ESE 4.6 mph - N/A   Clear
8:16 PM 57.2 °F 51.8 °F 82% 29.97 in 10.0 mi ESE 4.6 mph - N/A   Clear
9:16 PM 57.2 °F 51.8 °F 82% 29.97 in 10.0 mi East 4.6 mph - N/A   Clear
9:36 PM 55.4 °F 51.8 °F 88% 29.98 in 10.0 mi ENE 3.5 mph - N/A   Clear
10:16 PM 55.4 °F 51.8 °F 88% 29.98 in 10.0 mi Calm Calm - N/A   Clear
11:56 PM 51.8 °F 48.2 °F 88% 29.99 in 10.0 mi Calm Calm - N/A   Clear